Wind_Speed
8 11 15 19 21 24 28 32 36 39 41 43 44 46 48 49 51 54 55 56 55 53 53 53 55 54 54 53 53 55 55 55 57 56 55 53 53 53 54 53 52 52 51
7 8 10 13 15 18 21 25 30 34 36 39 41 43 45 46 48 50 52 53 54 52 51 51 52 52 52 52 54 56 57 58 59 58 57 56 56 56 56 56 55 54 53
4 6 8 10 12 14 17 19 23 27 31 34 37 39 41 44 45 47 48 50 51 51 50 50 51 52 53 54 56 57 58 59 60 59 58 57 58 58 58 58 56 55 54
3 4 5 6 9 10 14 16 19 23 25 28 32 35 37 39 42 44 45 46 47 48 49 51 52 54 55 55 56 57 58 57 58 59 59 59 59 59 59 58 56 55 55
5 3 3 3 4 6 9 12 15 19 23 25 28 31 33 36 38 40 41 43 46 47 49 51 53 54 55 56 57 58 58 59 60 60 60 60 60 60 60 59 58 58 57
7 6 6 5 5 6 7 9 12 16 19 22 25 29 31 34 36 38 41 43 46 48 50 51 52 53 55 55 56 58 59 60 61 61 62 62 62 62 62 62 62 61 60
9 8 8 8 8 9 9 11 13 15 18 20 23 27 29 32 34 37 39 42 45 48 49 51 53 54 55 57 58 60 60 61 62 63 64 63 64 64 64 64 64 64 62
11 11 11 11 12 13 14 15 17 18 20 23 26 29 32 35 37 39 41 43 45 47 50 52 54 56 58 59 61 62 62 63 65 66 67 66 66 66 66 66 65 65 65
13 13 14 15 16 16 17 18 20 22 23 26 29 32 35 37 39 41 43 45 47 49 51 54 56 58 60 62 64 65 66 67 67 68 69 69 68 68 69 69 69 68 67
16 16 17 18 20 21 21 22 24 25 27 29 32 34 36 39 41 43 46 48 50 52 54 55 58 60 62 64 65 66 67 67 67 67 68 69 68 69 69 69 69 69 68
19 20 21 22 23 24 25 26 27 29 31 34 35 37 39 41 43 46 48 51 53 55 56 58 60 62 64 66 67 67 67 67 67 67 67 67 68 68 67 67 67 67 67
22 23 24 25 26 28 29 31 32 34 36 37 39 41 42 44 46 48 50 53 56 58 59 60 61 63 65 66 67 68 67 67 66 67 67 67 68 68 67 66 65 65 65
26 27 28 30 31 32 34 35 37 38 40 42 43 45 46 48 49 51 53 54 56 58 60 61 62 63 64 65 66 67 67 67 66 66 66 66 66 65 65 64 64 64 63
30 31 32 33 35 37 38 40 41 43 44 45 47 48 49 50 51 52 53 55 56 58 59 60 61 62 63 64 64 65 65 65 65 65 64 63 63 62 61 61 60 60 59
33 34 35 37 39 41 42 44 45 46 47 48 49 50 51 52 52 53 53 54 55 56 58 59 60 60 61 61 61 61 60 60 60 59 59 58 58 58 58 57 57 56 56
36 38 39 41 43 44 45 47 48 50 50 51 51 52 52 53 52 52 53 54 55 56 57 58 58 57 57 57 57 57 56 56 55 55 54 54 54 53 52 51 50 50 50
39 41 42 44 45 47 48 49 50 51 52 52 52 53 53 52 52 53 53 54 55 55 55 54 54 54 53 52 52 52 52 51 51 50 48 48 47 46 45 45 45 45 44
42 43 45 46 48 49 50 51 51 51 52 52 53 53 52 52 53 53 53 54 54 53 52 51 50 50 49 48 47 46 46 46 45 44 42 41 41 40 39 40 40 41 42
44 45 47 48 50 51 51 52 52 52 52 52 52 52 52 52 53 53 53 52 51 51 50 48 47 45 44 43 42 41 40 39 39 38 37 35 36 36 35 34 35 36 38
45 46 48 49 50 51 52 52 53 52 52 51 51 51 51 52 52 51 51 50 49 48 46 44 42 40 39 38 38 37 35 34 33 32 32 31 31 31 31 31 30 31 32
46 47 49 50 51 52 52 53 53 52 51 51 51 51 51 51 51 50 49 48 46 44 41 38 37 35 34 34 33 32 31 30 29 29 28 27 27 27 27 28 28 29 30
48 49 51 52 52 53 53 53 52 51 51 50 50 50 50 50 49 48 46 44 41 38 36 34 32 31 31 30 29 28 28 27 26 25 25 24 24 25 25 25 26 27 28
49 50 51 52 52 53 53 52 52 51 50 50 49 49 49 48 47 45 42 39 36 33 31 30 29 29 28 27 25 25 24 23 22 21 21 21 21 22 23 23 24 26 26
49 50 51 52 52 52 52 52 51 50 49 48 48 47 46 45 43 40 37 34 32 30 28 27 27 26 25 24 23 22 21 20 19 18 18 18 18 19 21 22 24 25 26
49 50 51 51 52 52 51 50 49 48 47 45 45 44 43 40 38 35 32 30 28 27 26 25 25 24 23 22 21 19 18 17 16 16 16 16 17 18 19 21 23 25 26
49 49 50 50 50 50 49 48 47 45 43 43 42 41 38 36 33 30 28 27 25 25 25 24 23 22 20 19 18 17 16 15 14 13 14 14 14 16 18 19 21 23 24
Wind_Direction
247 244 240 237 238 238 238 238 239 240 240 240 241 243 245 247 247 247 248 249 251 253 255 257 257 258 259 260 262 263 265 267 268 269 270 270 270 272 272 273 273 274 275
256 254 250 246 247 246 244 242 242 242 242 242 242 244 245 247 248 249 250 252 253 254 256 258 258 258 260 261 262 263 264 266 269 269 269 270 269 270 271 272 272 274 275
283 265 254 251 250 251 248 245 244 243 243 242 242 244 246 248 250 251 253 253 253 254 256 258 258 258 260 261 263 264 265 268 269 269 269 269 269 270 271 272 273 273 273
335 291 272 259 248 245 245 246 246 247 247 247 246 247 249 251 252 253 253 252 254 255 257 259 260 260 261 263 264 264 267 268 270 270 269 269 270 271 272 272 272 272 272
14 358 337 297 270 263 254 251 251 252 252 253 252 251 251 252 254 254 254 255 258 259 259 261 261 261 262 264 265 266 268 270 271 271 271 271 272 272 272 272 271 270 271
11 3 357 342 321 301 282 268 261 258 258 257 256 254 254 255 255 256 257 258 260 260 260 261 262 264 265 265 267 268 270 271 272 272 272 272 272 271 271 271 270 269 270
1 358 347 335 324 310 299 291 284 278 274 269 265 264 263 262 262 262 263 263 263 264 265 265 266 267 268 270 271 271 272 273 273 273 273 273 273 271 271 271 270 270 271
336 331 326 319 312 307 301 295 291 289 285 281 276 273 271 269 267 267 268 268 268 269 270 270 270 271 271 272 272 273 273 274 274 274 274 273 272 271 271 270 270 269 269
325 321 317 315 312 307 302 296 293 291 289 287 283 279 277 276 274 273 272 272 272 272 273 273 273 274 274 274 274 274 275 275 274 274 273 273 271 271 270 269 268 268 268
321 319 316 314 311 307 304 300 298 296 295 293 290 287 283 281 279 279 278 277 276 276 276 276 276 276 276 277 277 277 277 276 275 275 273 272 271 271 270 269 268 268 268
314 313 312 311 310 308 306 304 302 300 299 297 295 293 290 288 286 283 282 281 280 279 279 279 278 279 279 279 278 278 278 277 276 275 273 271 271 270 269 268 266 266 266
309 309 308 308 308 308 306 305 303 301 300 300 298 296 294 292 290 288 285 284 283 282 282 282 281 281 280 280 279 279 279 278 277 276 275 273 271 270 269 268 266 264 263
308 308 308 308 308 307 307 305 304 302 301 301 299 298 297 295 293 291 289 288 287 286 285 284 284 282 281 280 279 279 278 277 276 275 274 273 272 270 269 267 266 264 262
306 307 308 308 308 308 307 306 305 303 302 301 300 299 299 297 295 293 292 290 289 289 288 286 285 284 282 281 280 279 278 277 276 275 274 273 271 270 268 267 265 262 260
305 306 307 307 307 307 307 306 305 304 303 302 302 301 300 299 297 296 294 293 291 291 290 289 288 286 285 282 280 279 278 277 276 275 274 272 270 269 267 266 264 261 258
304 305 306 306 307 307 307 306 305 305 304 303 302 302 301 300 299 297 296 296 295 294 293 292 290 288 287 284 281 279 277 277 276 275 273 271 269 267 265 263 261 258 255
304 305 305 306 306 306 306 306 306 306 305 303 302 302 302 301 300 299 298 298 298 297 296 295 293 291 288 286 284 281 278 276 275 274 272 270 267 265 263 260 258 254 251
303 304 305 306 306 307 307 307 306 306 305 304 303 303 303 303 302 301 301 300 299 299 298 297 295 293 290 288 286 284 281 279 277 274 271 269 266 263 260 257 253 249 244
305 306 307 307 308 308 308 307 307 307 306 305 305 304 304 305 304 303 303 302 301 300 299 298 296 294 292 290 288 286 283 280 277 273 271 268 264 261 257 253 249 244 239
305 307 308 308 309 309 309 309 308 308 307 306 306 306 306 306 306 305 305 304 303 302 300 298 297 296 294 292 289 287 283 280 276 273 270 267 263 259 254 249 244 238 233
305 306 307 309 309 310 310 310 310 309 308 307 307 307 307 308 308 307 306 305 304 302 301 299 297 296 295 294 291 287 284 281 276 273 269 265 259 253 248 243 238 233 229
304 305 307 309 310 310 310 310 310 310 309 309 308 308 308 308 309 308 307 306 304 302 301 299 297 296 296 296 293 289 285 281 275 271 265 259 253 248 244 240 235 229 225
304 306 308 309 310 310 310 311 311 310 310 309 309 310 310 309 309 309 308 306 304 302 301 300 299 298 298 297 295 291 286 281 274 266 260 254 248 242 238 233 228 222 221
305 306 308 309 310 310 311 312 311 310 310 310 311 311 311 311 310 309 307 307 305 303 302 301 300 299 298 297 296 293 288 280 269 261 254 249 243 237 232 228 223 219 218
305 307 308 309 310 311 312 312 312 311 311 311 312 313 313 312 311 309 307 307 306 305 304 304 302 301 298 295 294 292 286 275 265 256 248 242 236 231 227 224 221 218 217
306 308 309 310 311 312 312 312 312 312 312 312 313 314 314 313 311 310 309 308 307 307 307 306 305 303 299 297 294 289 280 269 258 250 242 236 232 227 224 222 219 217 214
Height
5610 5612 5614 5617 5619 5621 5624 5627 5631 5635 5639 5643 5648 5652 5656 5660 5663 5667 5670 5674 5677 5680 5682 5684 5685 5686 5687 5688 5689 5690 5690 5690 5690 5692 5691 5691 5690 5690 5690 5689 5689 5688 5688
5610 5611 5612 5614 5616 5617 5619 5622 5625 5628 5632 5636 5640 5643 5647 5650 5653 5656 5660 5662 5665 5668 5669 5671 5672 5673 5674 5675 5675 5676 5677 5676 5676 5676 5677 5677 5676 5676 5676 5676 5675 5674 5674
5610 5610 5611 5612 5613 5615 5616 5618 5620 5623 5626 5629 5632 5635 5638 5641 5644 5646 5648 5651 5653 5655 5657 5658 5660 5660 5661 5661 5662 5662 5662 5662 5661 5661 5662 5661 5661 5661 5660 5660 5660 5659 5660
5611 5610 5611 5611 5612 5613 5614 5615 5617 5619 5621 5623 5626 5628 5630 5632 5634 5636 5638 5640 5642 5643 5645 5646 5647 5647 5648 5648 5648 5648 5647 5646 5645 5645 5645 5645 5645 5644 5643 5644 5644 5644 5644
5612 5612 5611 5611 5611 5611 5612 5613 5614 5616 5617 5619 5620 5621 5623 5625 5626 5628 5629 5630 5631 5632 5633 5633 5634 5634 5634 5633 5633 5633 5631 5630 5629 5628 5628 5628 5628 5627 5627 5627 5626 5626 5627
5614 5613 5612 5611 5611 5611 5611 5611 5611 5612 5612 5613 5614 5615 5616 5617 5617 5618 5619 5619 5620 5620 5620 5620 5620 5620 5619 5618 5617 5616 5615 5613 5612 5611 5611 5610 5610 5609 5608 5608 5608 5608 5610
5616 5614 5613 5612 5611 5610 5610 5609 5608 5608 5608 5607 5608 5608 5608 5608 5608 5608 5608 5608 5608 5607 5606 5606 5605 5604 5603 5602 5601 5599 5597 5595 5594 5593 5592 5591 5591 5591 5589 5589 5589 5589 5591
5616 5615 5613 5612 5611 5609 5608 5606 5605 5604 5603 5602 5601 5600 5599 5599 5598 5597 5596 5595 5594 5593 5592 5590 5589 5588 5586 5585 5583 5581 5579 5576 5574 5572 5572 5571 5570 5569 5569 5569 5569 5569 5571
5616 5614 5612 5610 5608 5606 5605 5603 5601 5599 5597 5595 5593 5591 5589 5588 5586 5585 5583 5582 5580 5578 5576 5574 5572 5570 5569 5566 5564 5562 5559 5557 5554 5552 5550 5549 5548 5547 5546 5546 5547 5547 5549
5614 5612 5610 5607 5605 5602 5600 5597 5595 5592 5590 5587 5584 5581 5578 5576 5573 5571 5569 5567 5565 5562 5560 5556 5554 5551 5549 5545 5543 5540 5538 5535 5533 5530 5528 5526 5525 5524 5524 5523 5524 5525 5527
5611 5608 5606 5603 5600 5597 5594 5591 5588 5585 5582 5578 5574 5570 5567 5563 5560 5557 5553 5550 5548 5545 5542 5539 5535 5532 5528 5525 5521 5518 5515 5513 5510 5508 5506 5504 5502 5501 5501 5501 5502 5503 5505
5606 5604 5601 5597 5594 5591 5587 5583 5580 5576 5572 5567 5563 5558 5553 5549 5545 5541 5537 5533 5529 5526 5523 5519 5515 5510 5506 5502 5498 5495 5492 5490 5487 5485 5483 5482 5480 5480 5479 5479 5479 5481 5483
5601 5597 5594 5590 5586 5582 5578 5574 5569 5565 5560 5555 5550 5545 5540 5534 5529 5524 5519 5514 5510 5506 5501 5497 5492 5488 5483 5480 5476 5472 5469 5467 5465 5463 5461 5459 5458 5457 5457 5457 5458 5459 5462
5594 5590 5586 5582 5578 5573 5568 5563 5558 5553 5548 5543 5537 5531 5525 5519 5513 5507 5502 5496 5491 5486 5481 5476 5471 5466 5461 5458 5454 5451 5447 5444 5442 5440 5438 5437 5436 5435 5435 5436 5437 5438 5441
5586 5582 5577 5573 5568 5563 5557 5552 5546 5540 5534 5528 5522 5516 5510 5503 5496 5490 5484 5478 5473 5467 5461 5456 5451 5446 5441 5436 5432 5429 5426 5423 5421 5419 5417 5417 5416 5415 5415 5416 5417 5419 5422
5577 5572 5567 5563 5557 5551 5545 5539 5532 5526 5520 5513 5506 5500 5494 5487 5480 5474 5467 5461 5455 5448 5442 5437 5431 5426 5421 5416 5412 5409 5407 5404 5401 5400 5398 5397 5397 5397 5397 5398 5399 5402 5405
5567 5562 5557 5551 5546 5539 5533 5526 5519 5512 5505 5498 5491 5485 5478 5471 5465 5458 5451 5444 5438 5431 5424 5418 5413 5407 5402 5398 5394 5391 5388 5385 5383 5382 5381 5380 5380 5380 5381 5382 5384 5387 5390
5556 5551 5545 5539 5533 5527 5520 5513 5506 5499 5492 5484 5477 5470 5463 5456 5449 5442 5435 5428 5421 5414 5407 5401 5395 5390 5385 5381 5377 5374 5372 5369 5367 5366 5365 5365 5365 5365 5366 5368 5370 5373 5377
5544 5539 5533 5527 5520 5513 5506 5499 5492 5485 5477 5470 5463 5456 5448 5441 5434 5426 5419 5412 5405 5398 5391 5385 5379 5374 5370 5366 5363 5360 5357 5355 5353 5352 5351 5351 5351 5352 5354 5355 5358 5361 5365
5532 5526 5520 5514 5507 5500 5493 5485 5478 5471 5463 5456 5449 5441 5434 5427 5419 5411 5404 5397 5390 5383 5377 5371 5366 5361 5357 5353 5350 5347 5345 5343 5341 5340 5340 5339 5340 5341 5343 5345 5348 5352 5356
5519 5513 5507 5501 5494 5486 5479 5472 5464 5457 5449 5442 5435 5427 5420 5413 5405 5397 5390 5383 5376 5370 5364 5359 5354 5350 5346 5342 5339 5336 5334 5332 5331 5330 5329 5329 5330 5332 5334 5337 5340 5344 5349
5507 5501 5494 5488 5480 5473 5466 5458 5450 5443 5435 5428 5421 5413 5406 5398 5391 5384 5377 5370 5364 5359 5354 5349 5345 5341 5337 5333 5330 5327 5325 5323 5322 5321 5321 5321 5322 5324 5327 5330 5333 5338 5343
5494 5488 5481 5474 5467 5459 5452 5444 5437 5429 5422 5415 5408 5400 5392 5385 5378 5371 5365 5359 5354 5349 5344 5340 5336 5332 5328 5325 5322 5319 5317 5315 5314 5314 5314 5315 5316 5318 5321 5324 5328 5332 5337
5481 5474 5468 5461 5454 5446 5439 5431 5424 5416 5409 5402 5395 5387 5380 5373 5366 5360 5354 5349 5344 5340 5336 5332 5328 5324 5321 5318 5315 5312 5310 5309 5308 5308 5308 5310 5311 5313 5316 5319 5323 5327 5332
5468 5461 5455 5448 5440 5433 5425 5418 5411 5404 5397 5390 5383 5375 5368 5362 5356 5350 5345 5341 5336 5332 5328 5325 5321 5317 5314 5311 5309 5306 5305 5303 5303 5303 5304 5305 5307 5309 5312 5315 5319 5323 5327
5455 5448 5442 5434 5427 5420 5413 5406 5399 5392 5385 5378 5372 5365 5358 5352 5347 5342 5337 5333 5329 5325 5322 5318 5314 5311 5308 5305 5303 5301 5300 5299 5299 5300 5301 5302 5304 5306 5309 5312 5315 5319 5323